FW5487 Weather Reports


Display with metric or nautical units.
time (UTC)temp
F
wind
direction
speed
MPH
gust
MPH
rain 1hr
in
rain 24hr
in
rain mn
in
humidity
%
barometer
mb
20260906122704 79 22 3.0 6.0 0.00 0.00 0.00 79 1000.0
20260906121703 79 57 2.0 3.0 0.00 0.00 0.00 79 1000.0
20260906121203 79 48 2.0 3.0 0.00 0.00 0.00 79 1000.0
20260906120704 79 50 2.0 5.0 0.00 0.00 0.00 79 1000.0
20260906120203 79 45 1.0 2.0 0.00 0.00 0.00 79 1000.0
20260906115704 79 78 2.0 3.0 0.00 0.00 0.00 79 1000.0
20260906114704 79 37 1.0 3.0 0.00 0.00 0.00 78 1000.0
20260906114203 79 56 1.0 2.0 0.00 0.00 0.00 78 1000.0
20260906113704 79 45 0.0 0.0 0.00 0.00 0.00 78 1000.0
20260906113204 80 48 1.0 2.0 0.00 0.00 0.00 78 1000.0
20260906112703 80 72 2.0 5.0 0.00 0.00 0.00 78 1000.0
20260906112204 80 52 2.0 5.0 0.00 0.00 0.00 78 1000.0
20260906111703 80 43 1.0 3.0 0.00 0.00 0.00 78 1000.0
20260906111204 80 63 2.0 3.0 0.00 0.00 0.00 77 1000.0
20260906110704 80 37 2.0 3.0 0.00 0.00 0.00 77 1000.0
20260906105703 80 58 1.0 2.0 0.00 0.00 0.00 78 1000.0
20260906105204 80 50 1.0 2.0 0.00 0.00 0.00 78 1000.0
20260906104703 80 30 1.0 2.0 0.00 0.00 0.00 78 1000.0
20260906104204 80 23 1.0 1.0 0.00 0.00 0.00 78 1000.0
20260906103704 80 30 0.0 0.0 0.00 0.00 0.00 78 1000.0
20260906103203 80 28 1.0 2.0 0.00 0.00 0.00 77 1000.0
20260906102704 80 354 0.0 2.0 0.00 0.00 0.00 77 1000.0
20260906102203 81 3 2.0 3.0 0.00 0.00 0.00 77 1000.0
20260906101704 81 14 1.0 2.0 0.00 0.00 0.00 77 1000.0
20260906101203 81 37 1.0 2.0 0.00 0.00 0.00 76 1000.0
20260906100703 81 12 2.0 2.0 0.00 0.00 0.00 76 1000.0
20260906100204 81 352 1.0 3.0 0.00 0.00 0.00 75 1000.0
20260906095703 81 25 2.0 5.0 0.00 0.00 0.00 74 1000.0
20260906095204 81 11 2.0 3.0 0.00 0.00 0.00 75 1000.0
20260906094204 81 20 1.0 2.0 0.00 0.00 0.00 76 1000.0
20260906093704 81 8 1.0 3.0 0.00 0.00 0.00 76 1000.0
20260906093203 81 20 1.0 2.0 0.00 0.00 0.00 77 1000.0
20260906092703 81 41 1.0 1.0 0.00 0.00 0.00 77 1000.0
20260906092203 81 46 1.0 2.0 0.00 0.00 0.00 78 1000.0
20260906091704 81 51 1.0 2.0 0.00 0.00 0.00 78 1000.0
20260906090703 81 36 1.0 2.0 0.00 0.00 0.00 78 1000.0
20260906090204 81 60 0.0 2.0 0.00 0.00 0.00 78 1000.0
20260906085704 81 12 2.0 3.0 0.00 0.00 0.00 77 1000.0
20260906085204 81 19 0.0 3.0 0.00 0.00 0.00 76 1000.0
20260906084705 81 39 1.0 2.0 0.00 0.00 0.00 76 1000.0
20260906083704 81 50 1.0 2.0 0.00 0.00 0.00 75 1000.0
20260906083204 80 89 1.0 2.0 0.00 0.00 0.00 76 1000.0
20260906082204 80 80 1.0 2.0 0.00 0.00 0.00 81 1000.0
20260906081704 80 132 2.0 3.0 0.00 0.00 0.00 81 1000.0
20260906081204 80 141 2.0 3.0 0.00 0.00 0.00 81 1000.0
20260906080704 80 152 2.0 3.0 0.00 0.00 0.00 80 1000.0
20260906080204 81 140 2.0 3.0 0.00 0.00 0.00 79 1000.0
20260906075703 81 138 3.0 3.0 0.00 0.00 0.00 76 1000.0
20260906074704 83 16 0.0 0.0 0.00 0.00 0.00 71 1000.0
20260906074203 83 16 0.0 0.0 0.00 0.00 0.00 71 1000.0
20260906073703 83 16 0.0 1.0 0.00 0.00 0.00 71 1000.0
20260906073204 83 1 0.0 1.0 0.00 0.00 0.00 71 1000.0
20260906072203 83 5 0.0 0.0 0.00 0.00 0.00 71 1000.0
20260906071704 83 5 0.0 0.0 0.00 0.00 0.00 71 1000.0
20260906071203 83 5 0.0 2.0 0.00 0.00 0.00 71 1000.0
20260906070704 83 355 1.0 2.0 0.00 0.00 0.00 71 1000.0
20260906070204 83 8 1.0 2.0 0.00 0.00 0.00 71 1000.0
20260906065703 84 7 1.0 2.0 0.00 0.00 0.00 72 1000.0
20260906065204 84 3 2.0 2.0 0.00 0.00 0.00 72 1000.0
20260906064704 84 9 2.0 3.0 0.00 0.00 0.00 72 1000.0
20260906064204 84 2 2.0 3.0 0.00 0.00 0.00 71 1000.0
20260906063203 84 1 0.0 2.0 0.00 0.00 0.00 70 1000.0
20260906062704 84 16 1.0 2.0 0.00 0.00 0.00 70 1000.0
20260906062203 85 321 0.0 0.0 0.00 0.00 0.00 68 1000.0
20260906061703 85 320 0.0 2.0 0.00 0.00 0.00 68 1000.0
20260906060703 85 337 1.0 1.0 0.00 0.00 0.00 68 1000.0
20260906060203 85 343 1.0 2.0 0.00 0.00 0.00 67 1000.0
20260906055704 86 339 1.0 2.0 0.00 0.00 0.00 66 1000.0
20260906055204 86 346 2.0 3.0 0.00 0.00 0.00 65 1000.0
20260906054203 86 19 0.0 2.0 0.00 0.00 0.00 62 1000.0
20260906053704 86 18 0.0 0.0 0.00 0.00 0.00 61 1000.0
20260906053204 86 18 0.0 0.0 0.00 0.00 0.00 61 1000.0
20260906052704 87 18 0.0 0.0 0.00 0.00 0.00 60 1000.0
20260906051703 87 18 0.0 0.0 0.00 0.00 0.00 59 1000.0
20260906051204 87 18 0.0 1.0 0.00 0.00 0.00 59 1000.0
20260906050703 87 50 0.0 2.0 0.00 0.00 0.00 58 1000.0
20260906050204 87 33 0.0 0.0 0.00 0.00 0.00 58 1000.0
20260906045204 87 59 1.0 2.0 0.00 0.00 0.00 58 1000.0
20260906044704 87 67 1.0 2.0 0.00 0.00 0.00 58 1000.0
20260906043704 87 15 1.0 2.0 0.00 0.00 0.00 59 1000.0
20260906043204 86 75 1.0 2.0 0.00 0.00 0.00 60 1000.0
20260906042703 86 100 1.0 3.0 0.00 0.00 0.00 61 1000.0
20260906042204 86 104 1.0 2.0 0.00 0.00 0.00 62 1000.0
20260906041704 87 155 2.0 3.0 0.00 0.00 0.00 58 1000.0
20260906041203 88 125 2.0 3.0 0.00 0.00 0.00 56 1000.0
20260906040703 89 46 1.0 5.0 0.00 0.00 0.00 55 1000.0
20260906040204 89 78 1.0 2.0 0.00 0.00 0.00 54 1000.0
20260906035704 89 63 0.0 0.0 0.00 0.00 0.00 54 1000.0
20260906035204 89 63 0.0 0.0 0.00 0.00 0.00 54 1000.0
20260906034704 88 63 0.0 0.0 0.00 0.00 0.00 55 1000.0
20260906033203 87 120 2.0 5.0 0.00 0.00 0.00 57 1000.0
20260906032204 87 132 2.0 3.0 0.00 0.00 0.00 57 1000.0
20260906031704 88 127 2.0 3.0 0.00 0.00 0.00 58 1000.0
20260906031203 88 136 3.0 5.0 0.00 0.00 0.00 56 1000.0
20260906030703 89 137 2.0 3.0 0.00 0.00 0.00 55 1000.0
20260906030203 90 143 2.0 2.0 0.00 0.00 0.00 53 1000.0
20260906025204 91 67 0.0 0.0 0.00 0.00 0.00 51 1000.0
20260906024703 91 67 0.0 0.0 0.00 0.00 0.00 51 1000.0
20260906024204 91 67 0.0 0.0 0.00 0.00 0.00 50 1000.0
20260906023704 91 59 1.0 2.0 0.00 0.00 0.00 50 1000.0
20260906023203 92 21 0.0 1.0 0.00 0.00 0.00 49 1000.0
20260906022703 92 16 0.0 1.0 0.00 0.00 0.00 49 1000.0
20260906022204 92 40 0.0 1.0 0.00 0.00 0.00 48 1000.0
20260906021204 92 351 0.0 3.0 0.00 0.00 0.00 47 1000.0
20260906020703 92 349 1.0 2.0 0.00 0.00 0.00 47 1000.0
20260906020204 93 355 2.0 3.0 0.00 0.00 0.00 47 1000.0
20260906015703 93 15 2.0 3.0 0.00 0.00 0.00 47 1000.0
20260906015203 93 10 3.0 5.0 0.00 0.00 0.00 46 1000.0
20260906014704 93 3 2.0 3.0 0.00 0.00 0.00 46 1000.0
20260906014204 93 12 2.0 5.0 0.00 0.00 0.00 46 1000.0
20260906013204 94 6 2.0 5.0 0.00 0.00 0.00 45 1000.0
20260906012704 94 4 2.0 5.0 0.00 0.00 0.00 45 1000.0
20260906012204 94 7 2.0 5.0 0.00 0.00 0.00 44 1000.0
20260906011704 94 357 2.0 3.0 0.00 0.00 0.00 44 1000.0
20260906011204 94 9 2.0 5.0 0.00 0.00 0.00 44 1000.0
20260906010703 94 6 3.0 6.0 0.00 0.00 0.00 43 1000.0
20260906005204 95 15 2.0 5.0 0.00 0.00 0.00 42 1000.0
20260906004704 95 12 3.0 5.0 0.00 0.00 0.00 42 1000.0
20260906004203 96 2 2.0 5.0 0.00 0.00 0.00 41 1000.0
20260906003704 96 5 3.0 6.0 0.00 0.00 0.00 40 1000.0
20260906003204 96 4 3.0 5.0 0.00 0.00 0.00 40 1000.0
20260906002704 96 14 3.0 7.0 0.00 0.00 0.00 40 1000.0
20260906001704 97 15 4.0 6.0 0.00 0.00 0.00 38 1000.0
20260906001204 97 12 3.0 7.0 0.00 0.00 0.00 38 1000.0
20260906000704 97 13 5.0 7.0 0.00 0.00 0.00 38 1000.0
20260905235703 98 8 5.0 8.0 0.00 0.00 0.00 37 1000.0
20260905235204 98 0 3.0 8.0 0.00 0.00 0.00 36 1000.0
20260905234703 99 14 2.0 7.0 0.00 0.00 0.00 36 1000.0
20260905234204 99 14 5.0 7.0 0.00 0.00 0.00 36 1000.0
20260905233704 99 2 3.0 8.0 0.00 0.00 0.00 35 1000.0
20260905233204 100 6 3.0 8.0 0.00 0.00 0.00 35 1000.0
20260905232703 100 8 5.0 9.0 0.00 0.00 0.00 34 1000.0
20260905232204 100 354 4.0 8.0 0.00 0.00 0.00 34 1000.0
20260905231704 100 358 4.0 9.0 0.00 0.00 0.00 34 1000.0
20260905231203 100 23 4.0 8.0 0.00 0.00 0.00 33 1000.0
20260905230705 101 23 2.0 7.0 0.00 0.00 0.00 33 1000.0
20260905230204 101 34 3.0 7.0 0.00 0.00 0.00 33 1000.0
20260905225704 101 7 5.0 8.0 0.00 0.00 0.00 32 1000.0
20260905225203 101 45 2.0 8.0 0.00 0.00 0.00 33 1000.0
20260905224704 101 18 3.0 9.0 0.00 0.00 0.00 32 1000.0
20260905224204 101 356 4.0 9.0 0.00 0.00 0.00 32 1000.0
20260905223704 101 41 4.0 7.0 0.00 0.00 0.00 32 1000.0
20260905223204 101 324 3.0 8.0 0.00 0.00 0.00 31 1000.0
20260905222704 101 9 6.0 9.0 0.00 0.00 0.00 31 1000.0
20260905222203 102 35 3.0 7.0 0.00 0.00 0.00 31 1000.0
20260905221704 101 14 2.0 6.0 0.00 0.00 0.00 31 1000.0
20260905221203 101 346 3.0 8.0 0.00 0.00 0.00 31 1000.0
20260905220703 101 59 2.0 5.0 0.00 0.00 0.00 31 1000.0
20260905215704 101 2 5.0 10.0 0.00 0.00 0.00 31 1000.0
20260905215203 101 15 3.0 9.0 0.00 0.00 0.00 31 1000.0
20260905214704 101 359 5.0 9.0 0.00 0.00 0.00 31 1000.0
20260905214204 102 10 3.0 9.0 0.00 0.00 0.00 30 1000.0
20260905213704 102 17 3.0 8.0 0.00 0.00 0.00 30 1000.0
20260905212704 102 316 3.0 8.0 0.00 0.00 0.00 30 1000.0
20260905212203 102 346 3.0 7.0 0.00 0.00 0.00 30 1000.0
20260905211704 102 319 1.0 2.0 0.00 0.00 0.00 30 1000.0
20260905210704 101 351 3.0 9.0 0.00 0.00 0.00 30 1000.0
20260905210204 101 9 6.0 10.0 0.00 0.00 0.00 30 1000.0
20260905205704 102 351 5.0 12.0 0.00 0.00 0.00 29 1000.0
20260905205203 103 329 3.0 7.0 0.00 0.00 0.00 29 1000.0
20260905204704 102 11 2.0 6.0 0.00 0.00 0.00 29 1000.0
20260905204204 102 26 2.0 6.0 0.00 0.00 0.00 29 1000.0
20260905203703 102 3 3.0 9.0 0.00 0.00 0.00 29 1000.0
20260905203203 102 1 5.0 8.0 0.00 0.00 0.00 29 1000.0
20260905202704 102 3 4.0 9.0 0.00 0.00 0.00 30 1000.0
20260905202204 102 354 5.0 9.0 0.00 0.00 0.00 30 1000.0
20260905201703 101 67 3.0 9.0 0.00 0.00 0.00 31 1000.0
20260905201204 101 4 3.0 9.0 0.00 0.00 0.00 31 1000.0
20260905200703 101 5 6.0 9.0 0.00 0.00 0.00 30 1000.0
20260905200204 101 3 5.0 9.0 0.00 0.00 0.00 31 1000.0
20260905195204 102 330 5.0 12.0 0.00 0.00 0.00 30 1000.0
20260905194704 102 16 2.0 5.0 0.00 0.00 0.00 30 1000.0
20260905194203 102 274 3.0 7.0 0.00 0.00 0.00 29 1000.0
20260905193704 102 352 2.0 6.0 0.00 0.00 0.00 29 1000.0
20260905193204 101 282 2.0 6.0 0.00 0.00 0.00 31 1000.0
20260905192703 101 279 3.0 8.0 0.00 0.00 0.00 32 1000.0
20260905191204 102 309 5.0 8.0 0.00 0.00 0.00 30 1000.0
20260905190704 102 354 2.0 7.0 0.00 0.00 0.00 30 1000.0
20260905190204 102 341 3.0 7.0 0.00 0.00 0.00 30 1000.0
20260905185704 101 343 3.0 7.0 0.00 0.00 0.00 31 1000.0
20260905184704 101 212 3.0 9.0 0.00 0.00 0.00 32 1000.0
20260905184204 101 342 4.0 9.0 0.00 0.00 0.00 33 1000.0
20260905183203 100 336 7.0 10.0 0.00 0.00 0.00 33 1000.0
20260905181704 100 337 5.0 9.0 0.00 0.00 0.00 33 1000.0
20260905181205 99 311 6.0 10.0 0.00 0.00 0.00 35 1000.0
20260905180704 100 303 5.0 10.0 0.00 0.00 0.00 32 1000.0
20260905180204 100 282 3.0 9.0 0.00 0.00 0.00 34 1000.0
20260905175704 100 291 3.0 9.0 0.00 0.00 0.00 34 1000.0
20260905175204 99 290 4.0 8.0 0.00 0.00 0.00 35 1000.0
20260905174704 99 324 4.0 9.0 0.00 0.00 0.00 36 1000.0
20260905174204 99 345 3.0 8.0 0.00 0.00 0.00 36 1000.0
20260905173204 99 347 3.0 7.0 0.00 0.00 0.00 35 1000.0
20260905172704 99 357 1.0 6.0 0.00 0.00 0.00 36 1000.0
20260905172204 99 352 3.0 6.0 0.00 0.00 0.00 36 1000.0
20260905171704 98 233 2.0 5.0 0.00 0.00 0.00 39 1000.0
20260905171204 97 308 3.0 8.0 0.00 0.00 0.00 39 1000.0
20260905170704 97 297 3.0 8.0 0.00 0.00 0.00 39 1000.0
20260905170204 97 0 1.0 6.0 0.00 0.00 0.00 40 1000.0
20260905165708 97 284 3.0 9.0 0.00 0.00 0.00 40 1000.0
20260905165204 97 280 2.0 8.0 0.00 0.00 0.00 41 1000.0
20260905164203 96 273 2.0 8.0 0.00 0.00 0.00 42 1000.0
20260905163703 95 308 2.0 7.0 0.00 0.00 0.00 44 1000.0
20260905162703 95 282 3.0 7.0 0.00 0.00 0.00 44 1000.0
20260905162204 94 345 3.0 8.0 0.00 0.00 0.00 45 1000.0
20260905161703 95 264 4.0 8.0 0.00 0.00 0.00 44 1000.0
20260905161204 94 320 3.0 7.0 0.00 0.00 0.00 45 1000.0
20260905160704 94 324 4.0 7.0 0.00 0.00 0.00 45 1000.0
20260905160203 94 292 4.0 6.0 0.00 0.00 0.00 46 1000.0
20260905155704 94 293 5.0 8.0 0.00 0.00 0.00 45 1000.0
20260905155203 94 233 2.0 7.0 0.00 0.00 0.00 46 1000.0
20260905154704 94 231 4.0 7.0 0.00 0.00 0.00 47 1000.0
20260905153203 92 203 5.0 7.0 0.00 0.00 0.00 49 1000.0
20260905152704 92 232 3.0 8.0 0.00 0.00 0.00 50 1000.0
20260905152203 91 211 5.0 8.0 0.00 0.00 0.00 51 1000.0
20260905151704 91 239 3.0 7.0 0.00 0.00 0.00 52 1000.0
20260905151204 91 251 3.0 6.0 0.00 0.00 0.00 52 1000.0
20260905150703 91 230 3.0 8.0 0.00 0.00 0.00 52 1000.0
20260905150204 90 232 2.0 8.0 0.00 0.00 0.00 54 1000.0
20260905145703 89 222 2.0 5.0 0.00 0.00 0.00 55 1000.0
20260905145204 89 243 2.0 6.0 0.00 0.00 0.00 56 1000.0
20260905144703 88 202 1.0 6.0 0.00 0.00 0.00 57 1000.0
20260905144204 88 246 2.0 5.0 0.00 0.00 0.00 57 1000.0
20260905143704 88 238 3.0 6.0 0.00 0.00 0.00 57 1000.0
20260905143203 88 225 3.0 7.0 0.00 0.00 0.00 57 1000.0
20260905142704 87 216 4.0 7.0 0.00 0.00 0.00 57 1000.0
20260905141704 87 194 3.0 6.0 0.00 0.00 0.00 59 1000.0
20260905141203 86 216 2.0 5.0 0.00 0.00 0.00 60 1000.0
20260905140704 86 209 3.0 6.0 0.00 0.00 0.00 60 1000.0
20260905140203 85 225 2.0 6.0 0.00 0.00 0.00 60 1000.0
20260905135704 85 199 3.0 7.0 0.00 0.00 0.00 61 1000.0
20260905135203 84 212 6.0 9.0 0.00 0.00 0.00 61 1000.0
20260905134204 84 212 3.0 6.0 0.00 0.00 0.00 62 1000.0
20260905132704 83 212 1.0 2.0 0.00 0.00 0.00 64 1000.0
20260905132203 83 196 2.0 5.0 0.00 0.00 0.00 65 1000.0
20260905131704 82 183 2.0 5.0 0.00 0.00 0.00 67 1000.0
20260905131204 81 181 3.0 5.0 0.00 0.00 0.00 69 1000.0
20260905130703 81 177 3.0 6.0 0.00 0.00 0.00 70 1000.0
20260905130204 80 190 4.0 5.0 0.00 0.00 0.00 72 1000.0
20260905125703 80 177 2.0 3.0 0.00 0.00 0.00 74 1000.0
20260905125203 79 69 0.0 1.0 0.00 0.00 0.00 76 1000.0
20260905124704 78 107 0.0 2.0 0.00 0.00 0.00 78 1000.0
20260905124203 78 101 2.0 3.0 0.00 0.00 0.00 78 1000.0